Weather History for Chanute, KS

Change the Weather History Date:

Sunday, February 3, 2013

  Actual Average Record
Temperature  
Mean Temperature 40 °F 34 °F  
Max Temperature 52 °F 45 °F 80 °F (1934)
Min Temperature 28 °F 24 °F -16 °F (2011)
Degree Days  
Heating Degree Days 25 31  
Month to date heating degree days 94 93  
Since 1 July heating degree days 2383 2892  
Cooling Degree Days 0 0  
Month to date cooling degree days 0 0  
Year to date cooling degree days 1 0  
Moisture  
Dew Point 25 °F    
Average Humidity 55    
Maximum Humidity 78    
Minimum Humidity 32    
Precipitation  
Precipitation 0.00 in 0.05 in 1.74 in (1986)
Month to date precipitation T 0.15  
Year to date precipitation 2.37 1.41  
Sea Level Pressure  
Sea Level Pressure 30.16 in    
Wind  
Wind Speed 9 mph (SSW)    
Max Wind Speed 17 mph    
Max Gust Speed 23 mph    
Visibility 10 miles    
Events      
T = Trace of Precipitation, MM = Missing Value Source: NWS Daily Summary

Daily Weather History Graph

Daily Weather History Graph

Search for Another Location

Airport:

Trip Planner

Search our weather history database for the weather conditions in past years. The results will help you decide how hot, cold, wet, or windy it might be!

Date:

Astronomy

Feb. 03, 2013 Rise Set
Actual Time 7:23 AM CST 5:48 PM CST
Civil Twilight 6:56 AM CST 6:15 PM CST
Nautical Twilight 6:25 AM CST 6:47 PM CST
Astronomical Twilight 5:54 AM CST 7:17 PM CST
Moon 12:52 AM CST (2/3) 11:26 AM CST (2/3)
Length of Visible Light 11h 19m
Length of Day
10h 24m
Waning Gibbous, 48% of the Moon is Illuminated
Feb 3
Waning Gibbous
Feb 10
New
Feb 17
First Quarter
Feb 25
Full
Mar 4
Last Quarter

Hourly Weather History & Observations

Time (CST) Temp. Windchill Dew Point Humidity Pressure Visibility Wind Dir Wind Speed Gust Speed Precip Events Conditions
12:52 AM 43.0 °F 36.8 °F 27.0 °F 53% 30.21 in 10.0 mi NW 11.5 mph - N/A   Clear
1:52 AM 37.9 °F 32.1 °F 27.0 °F 65% 30.22 in 10.0 mi WNW 8.1 mph - N/A   Clear
2:52 AM 36.0 °F 31.1 °F 26.1 °F 67% 30.23 in 10.0 mi WNW 5.8 mph - N/A   Clear
3:52 AM 33.1 °F 26.1 °F 25.0 °F 72% 30.25 in 10.0 mi West 8.1 mph - N/A   Clear
4:52 AM 35.1 °F 28.6 °F 26.1 °F 70% 30.26 in 10.0 mi NW 8.1 mph - N/A   Clear
5:52 AM 33.1 °F 26.9 °F 25.0 °F 72% 30.28 in 10.0 mi NW 6.9 mph - N/A   Clear
6:52 AM 28.9 °F 25.2 °F 23.0 °F 78% 30.30 in 10.0 mi West 3.5 mph - N/A   Clear
7:52 AM 30.0 °F 25.2 °F 24.1 °F 79% 30.32 in 10.0 mi NNW 4.6 mph - N/A   Clear
8:52 AM 36.0 °F 28.5 °F 26.1 °F 67% 30.31 in 10.0 mi North 10.4 mph - N/A   Clear
9:52 AM 41.0 °F 35.2 °F 26.1 °F 55% 30.30 in 10.0 mi North 9.2 mph - N/A   Clear
10:52 AM 43.0 °F 37.7 °F 21.9 °F 43% 30.29 in 10.0 mi ENE 9.2 mph - N/A   Clear
11:52 AM 45.0 °F 41.8 °F 21.9 °F 40% 30.26 in 10.0 mi East 5.8 mph - N/A   Clear
12:52 PM 48.0 °F - 21.0 °F 34% 30.22 in 10.0 mi South 8.1 mph - N/A   Clear
1:52 PM 51.1 °F - 23.0 °F 33% 30.17 in 10.0 mi South 9.2 mph - N/A   Clear
2:52 PM 51.1 °F - 24.1 °F 35% 30.13 in 10.0 mi South 13.8 mph - N/A   Clear
3:52 PM 50.0 °F - 25.0 °F 38% 30.10 in 10.0 mi SSE 11.5 mph - N/A   Clear
4:52 PM 50.0 °F - 27.0 °F 41% 30.07 in 10.0 mi South 10.4 mph - N/A   Clear
5:52 PM 45.0 °F 39.7 °F 28.0 °F 52% 30.05 in 10.0 mi South 10.4 mph - N/A   Clear
6:52 PM 44.1 °F 39.5 °F 28.0 °F 53% 30.04 in 10.0 mi SSE 8.1 mph - N/A   Clear
7:52 PM 42.1 °F 36.6 °F 27.0 °F 55% 30.01 in 10.0 mi South 9.2 mph - N/A   Clear
8:52 PM 43.0 °F 37.7 °F 27.0 °F 53% 29.98 in 10.0 mi South 9.2 mph - N/A   Clear
9:52 PM 45.0 °F 39.7 °F 27.0 °F 49% 29.95 in 10.0 mi South 10.4 mph - N/A   Clear
10:52 PM 46.9 °F - 25.0 °F 42% 29.93 in 10.0 mi South 15.0 mph - N/A   Clear
11:52 PM 46.0 °F 40.6 °F 26.1 °F 46% 29.91 in 10.0 mi South 11.5 mph - N/A   Clear